Location: Newark
(46.7000°N, 60.6000°W)
Time: 05:48:59
(UTC+00:00)

Transit 2A Rocket - Pass Details

Date: 28 October 2020
Orbit: 588 x 914 km, 66.7° (Epoch: 27 November)

Event Time Altitude Azimuth Distance (km) Brightness Sun altitude
Rises 19:20:12 0° 326° (NW) 3,414 8.3 13.1°
Reaches altitude 10° 19:24:38 10° 357° (N) 2,396 7.3 12.5°
Maximum altitude 19:26:36 12° 18° (NNE) 2,231 7.0 12.2°
Drops below altitude 10° 19:28:30 10° 39° (NE) 2,314 6.9 12.0°
Sets 19:32:34 0° 72° (ENE) 3,145 7.6 11.4°
